This is the latest recevied weather packets stored in our database for station/object CE4ERM-13. If no packets are shown the sender has not sent any weather packets the latest 10 day(s).
| Time | Temp. | Humidity | Pressure | Rain* | Wind** | Luminosity | Snow |
|---|---|---|---|---|---|---|---|
| 1777443225 | 23.89° C | 42% | 1019.8 hPa | - | - | - | - |
| 1777442753 | 21.11° C | 41% | 1018.4 hPa | - | - | - | - |
| 1777442153 | 21.11° C | 42% | 1019.3 hPa | - | - | - | - |
| 1777441423 | 23.89° C | 44% | 1019.1 hPa | - | - | - | - |
| 1777440953 | 21.11° C | 41% | 1020.4 hPa | - | - | - | - |
| 1777440823 | 23.89° C | 45% | 1019.5 hPa | - | - | - | - |
| 1777440353 | 21.11° C | 41% | 1020 hPa | - | - | - | - |
| 1777440222 | 22.22° C | 49% | 1019.6 hPa | - | - | - | - |
| 1777439752 | 21.11° C | 41% | 1019.6 hPa | - | - | - | - |
| 1777439621 | 22.78° C | 47% | 1019.7 hPa | - | - | - | - |
| 1777439152 | 21.11° C | 41% | 1019 hPa | - | - | - | - |
| 1777438551 | 21.11° C | 41% | 1019.9 hPa | - | - | - | - |
| 1777438420 | 22.22° C | 47% | 1019.8 hPa | - | - | - | - |
| 1777437951 | 21.11° C | 41% | 1019.5 hPa | - | - | - | - |
| 1777437820 | 21.67° C | 50% | 1019.5 hPa | - | - | - | - |
| 1777437350 | 21.67° C | 41% | 1018.1 hPa | - | - | - | - |
| 1777436786 | 21.11° C | 41% | 1021.3 hPa | - | - | - | - |
| 1777436749 | 21.11° C | 41% | 1021.3 hPa | - | - | - | - |
| 1777436620 | 21.67° C | 49% | 1019.9 hPa | - | - | - | - |
| 1777436020 | 20.56° C | 53% | 1020.3 hPa | - | - | - | - |
| 1777435548 | 21.67° C | 41% | 1021.2 hPa | - | - | - | - |
| 1777435419 | 21.11° C | 51% | 1019.9 hPa | - | - | - | - |
| 1777434947 | 21.67° C | 41% | 1020 hPa | - | - | - | - |
| 1777434219 | 22.78° C | 46% | 1019.6 hPa | - | - | - | - |
| 1777433747 | 21.67° C | 41% | 1020.7 hPa | - | - | - | - |
* Rain since midnight (hover to see other rain measurements)
** Current wind speed in m/s (hover to see current wind gust speed)